sat.trackr.live / text

‹ back to catalog

FLOCK 4H-24

NORAD 66727 · 2025-276BP

PAYLOAD ACTIVE UNKNOWN

§ Identity

Operator
Country
US
Launch date
2025-11-28
Launch site
AFWTR
Launch vehicle
Mass (kg)
RCS (m²)

Purposes: earth_obs

External: N2YO · Heavens-Above · Gunter

§ Orbital elements

Epoch: 2026-05-25T02:28:44.454720Z

Period
94.77 min
Inclination
97.4240°
Eccentricity
0.0005643
Mean motion
15.19533517 rev/d
Perigee alt
503.4 km
Apogee alt
511.1 km
Semi-major
6,885.4 km
B*
2.7010e-4
RAAN
219.0937°
Arg perigee
95.3213°
Mean anomaly
264.8666°
Rev number
2,691

§ Raw data

FLOCK 4H-241 66727U 25276BP  26145.10329230  .00005674  00000+0  27010-3 0  99922 66727  97.4240 219.0937 0005643  95.3213 264.8666 15.19533517 26914

JSON: /api/v1/satellites/66727 · /tle

For live sub-satellite position, see the globe view (requires WebGL).

§ Visibility from observer

Set your observer location to see the next 7 days of passes ≥ 10°. The values pass through the URL so the page stays shareable.

No JS? Fill the form by hand. The geolocation button needs JavaScript.